Time,TemperatureF,DewpointF,PressureIn,WindDirection,WindDirectionDegrees,WindSpeedMPH,WindSpeedGustMPH,Humidity,HourlyPrecipIn,Conditions,Clouds,dailyrainin,SoftwareType,DateUTC
2013-08-24 00:01:00,58.4,50.0,30.17,WNW,292,0.0,1.0,76,0.00,,,0.00,Rainwise IP-100,2013-08-24 04:01:00,
2013-08-24 00:02:00,58.4,50.0,30.19,WNW,292,0.0,1.0,76,0.00,,,0.00,Rainwise IP-100,2013-08-24 04:02:00,
2013-08-24 00:07:00,58.5,51.0,30.17,WNW,292,0.0,1.0,76,0.00,,,0.00,Rainwise IP-100,2013-08-24 04:07:00,
2013-08-24 00:12:00,58.3,50.0,30.19,WNW,292,0.0,1.0,76,0.00,,,0.00,Rainwise IP-100,2013-08-24 04:12:00,
2013-08-24 00:17:00,58.1,50.0,30.18,WNW,292,0.0,1.0,76,0.00,,,0.00,Rainwise IP-100,2013-08-24 04:17:00,
2013-08-24 00:22:00,57.9,50.0,30.19,WNW,292,0.0,2.0,76,0.00,,,0.00,Rainwise IP-100,2013-08-24 04:22:00,
2013-08-24 00:27:00,57.7,50.0,30.20,WNW,292,0.0,1.0,77,0.00,,,0.00,Rainwise IP-100,2013-08-24 04:27:00,
2013-08-24 00:32:00,57.5,50.0,30.18,WNW,292,2.3,4.0,78,0.00,,,0.00,Rainwise IP-100,2013-08-24 04:32:00,
2013-08-24 00:37:00,57.6,50.0,30.16,WNW,292,0.0,3.0,78,0.00,,,0.00,Rainwise IP-100,2013-08-24 04:37:00,
2013-08-24 00:42:00,57.5,51.0,30.18,WNW,292,0.0,2.0,79,0.00,,,0.00,Rainwise IP-100,2013-08-24 04:42:00,
2013-08-24 00:47:00,57.3,50.0,30.20,NW,315,1.9,2.0,79,0.00,,,0.00,Rainwise IP-100,2013-08-24 04:47:00,
2013-08-24 00:52:00,57.2,50.0,30.17,WNW,292,0.0,2.0,79,0.00,,,0.00,Rainwise IP-100,2013-08-24 04:52:00,
2013-08-24 00:57:00,57.5,50.0,30.18,NW,315,2.1,4.0,78,0.00,,,0.00,Rainwise IP-100,2013-08-24 04:57:00,
2013-08-24 01:02:00,57.8,50.0,30.18,NNW,337,0.0,4.0,77,0.00,,,0.00,Rainwise IP-100,2013-08-24 05:02:00,
2013-08-24 01:07:00,57.9,51.0,30.18,WNW,292,1.4,5.0,77,0.00,,,0.00,Rainwise IP-100,2013-08-24 05:07:00,
2013-08-24 01:12:00,57.8,50.0,30.18,NNW,337,0.0,3.0,76,0.00,,,0.00,Rainwise IP-100,2013-08-24 05:12:00,
2013-08-24 01:17:00,57.6,50.0,30.18,NNW,337,0.0,2.0,76,0.00,,,0.00,Rainwise IP-100,2013-08-24 05:17:00,
2013-08-24 01:22:00,57.2,50.0,30.17,NNW,337,0.0,1.0,77,0.00,,,0.00,Rainwise IP-100,2013-08-24 05:22:00,
2013-08-24 01:27:00,56.8,49.0,30.16,WNW,292,0.0,2.0,77,0.00,,,0.00,Rainwise IP-100,2013-08-24 05:27:00,
2013-08-24 01:32:00,56.5,50.0,30.20,WNW,292,0.0,1.0,78,0.00,,,0.00,Rainwise IP-100,2013-08-24 05:32:00,
2013-08-24 01:37:00,56.4,50.0,30.20,NW,315,0.0,1.0,78,0.00,,,0.00,Rainwise IP-100,2013-08-24 05:37:00,
2013-08-24 01:42:00,56.2,49.0,30.18,NW,315,0.0,1.0,78,0.00,,,0.00,Rainwise IP-100,2013-08-24 05:42:00,
2013-08-24 01:47:00,56.0,49.0,30.18,NW,315,0.0,2.0,78,0.00,,,0.00,Rainwise IP-100,2013-08-24 05:47:00,
2013-08-24 01:52:00,55.9,50.0,30.20,NW,315,1.4,1.4,79,0.00,,,0.00,Rainwise IP-100,2013-08-24 05:52:00,
2013-08-24 01:57:00,55.8,50.0,30.21,WNW,292,2.3,2.3,79,0.00,,,0.00,Rainwise IP-100,2013-08-24 05:57:00,
2013-08-24 02:02:00,55.8,50.0,30.18,NNW,337,1.4,3.0,80,0.00,,,0.00,Rainwise IP-100,2013-08-24 06:02:00,
2013-08-24 02:07:00,55.9,50.0,30.19,NNW,337,3.5,4.0,80,0.00,,,0.00,Rainwise IP-100,2013-08-24 06:07:00,
2013-08-24 02:12:00,56.2,50.0,30.18,NNW,337,2.6,4.0,80,0.00,,,0.00,Rainwise IP-100,2013-08-24 06:12:00,
2013-08-24 02:17:00,56.3,50.0,30.23,NNW,337,2.8,3.0,80,0.00,,,0.00,Rainwise IP-100,2013-08-24 06:17:00,
2013-08-24 02:22:00,56.2,50.0,30.18,NNW,337,1.9,3.0,80,0.00,,,0.00,Rainwise IP-100,2013-08-24 06:22:00,
2013-08-24 02:27:00,56.2,50.0,30.19,NNW,337,2.1,3.0,80,0.00,,,0.00,Rainwise IP-100,2013-08-24 06:27:00,
2013-08-24 02:32:00,56.2,50.0,30.20,North,0,2.3,3.0,80,0.00,,,0.00,Rainwise IP-100,2013-08-24 06:32:00,
2013-08-24 02:37:00,56.2,50.0,30.19,North,0,0.0,3.0,80,0.00,,,0.00,Rainwise IP-100,2013-08-24 06:37:00,
2013-08-24 02:42:00,56.2,50.0,30.20,NNW,337,1.9,3.0,80,0.00,,,0.00,Rainwise IP-100,2013-08-24 06:42:00,
2013-08-24 02:47:00,56.1,50.0,30.20,NNW,337,1.6,4.0,80,0.00,,,0.00,Rainwise IP-100,2013-08-24 06:47:00,
2013-08-24 02:52:00,56.1,50.0,30.20,NNW,337,4.2,4.2,79,0.00,,,0.00,Rainwise IP-100,2013-08-24 06:52:00,
2013-08-24 02:57:00,56.2,50.0,30.19,NNW,337,3.0,6.0,79,0.00,,,0.00,Rainwise IP-100,2013-08-24 06:57:00,
2013-08-24 03:02:00,56.3,50.0,30.20,NNW,337,3.5,7.0,79,0.00,,,0.00,Rainwise IP-100,2013-08-24 07:02:00,
2013-08-24 03:07:00,56.4,50.0,30.22,NNW,337,3.5,6.0,79,0.00,,,0.00,Rainwise IP-100,2013-08-24 07:07:00,
2013-08-24 03:12:00,56.3,50.0,30.21,North,0,5.1,6.0,79,0.00,,,0.00,Rainwise IP-100,2013-08-24 07:12:00,
2013-08-24 03:17:00,56.3,50.0,30.21,NNW,337,2.1,6.0,79,0.00,,,0.00,Rainwise IP-100,2013-08-24 07:17:00,
2013-08-24 03:22:00,56.1,50.0,30.21,NNW,337,1.4,3.0,79,0.00,,,0.00,Rainwise IP-100,2013-08-24 07:22:00,
2013-08-24 03:27:00,55.8,50.0,30.22,NNW,337,2.6,3.0,79,0.00,,,0.00,Rainwise IP-100,2013-08-24 07:27:00,
2013-08-24 03:32:00,55.6,50.0,30.19,NNW,337,1.9,5.0,80,0.00,,,0.00,Rainwise IP-100,2013-08-24 07:32:00,
2013-08-24 03:37:00,55.5,50.0,30.20,NNW,337,2.6,4.0,80,0.00,,,0.00,Rainwise IP-100,2013-08-24 07:37:00,
2013-08-24 03:42:00,55.5,50.0,30.21,NNW,337,2.8,5.0,80,0.00,,,0.00,Rainwise IP-100,2013-08-24 07:42:00,
2013-08-24 03:47:00,55.4,49.0,30.19,NNW,337,2.8,4.0,80,0.00,,,0.00,Rainwise IP-100,2013-08-24 07:47:00,
2013-08-24 03:52:00,55.2,49.0,30.22,NNW,337,2.8,3.0,80,0.00,,,0.00,Rainwise IP-100,2013-08-24 07:52:00,
2013-08-24 03:57:00,55.1,50.0,30.21,NW,315,1.6,4.0,81,0.00,,,0.00,Rainwise IP-100,2013-08-24 07:57:00,
2013-08-24 04:02:00,54.9,50.0,30.22,WNW,292,2.1,4.0,81,0.00,,,0.00,Rainwise IP-100,2013-08-24 08:02:00,
2013-08-24 04:07:00,54.7,49.0,30.20,NNW,337,2.6,4.0,81,0.00,,,0.00,Rainwise IP-100,2013-08-24 08:07:00,
2013-08-24 04:12:00,54.5,49.0,30.21,NW,315,3.3,5.0,82,0.00,,,0.00,Rainwise IP-100,2013-08-24 08:12:00,
2013-08-24 04:17:00,54.4,49.0,30.22,WNW,292,0.0,3.0,82,0.00,,,0.00,Rainwise IP-100,2013-08-24 08:17:00,
2013-08-24 04:22:00,54.3,48.0,30.23,WNW,292,3.0,3.0,82,0.00,,,0.00,Rainwise IP-100,2013-08-24 08:22:00,
2013-08-24 04:27:00,54.0,48.0,30.24,West,270,0.0,3.0,82,0.00,,,0.00,Rainwise IP-100,2013-08-24 08:27:00,
2013-08-24 04:32:00,53.8,48.0,30.24,ENE,67,1.9,1.9,82,0.00,,,0.00,Rainwise IP-100,2013-08-24 08:32:00,
2013-08-24 04:37:00,53.6,48.0,30.20,NNW,337,0.0,3.0,82,0.00,,,0.00,Rainwise IP-100,2013-08-24 08:37:00,
2013-08-24 04:42:00,53.6,48.0,30.24,NW,315,0.0,4.0,83,0.00,,,0.00,Rainwise IP-100,2013-08-24 08:42:00,
2013-08-24 04:47:00,53.4,48.0,30.23,NW,315,0.0,4.0,83,0.00,,,0.00,Rainwise IP-100,2013-08-24 08:47:00,
2013-08-24 04:52:00,53.2,47.0,30.23,NW,315,0.0,4.0,83,0.00,,,0.00,Rainwise IP-100,2013-08-24 08:52:00,
2013-08-24 04:57:00,53.0,48.0,30.23,NW,315,1.6,4.0,84,0.00,,,0.00,Rainwise IP-100,2013-08-24 08:57:00,
2013-08-24 05:02:00,52.8,48.0,30.21,NW,315,1.2,3.0,84,0.00,,,0.00,Rainwise IP-100,2013-08-24 09:02:00,
2013-08-24 05:07:00,52.8,48.0,30.25,NNW,337,0.0,4.0,84,0.00,,,0.00,Rainwise IP-100,2013-08-24 09:07:00,
2013-08-24 05:12:00,52.7,48.0,30.24,NW,315,0.0,4.0,85,0.00,,,0.00,Rainwise IP-100,2013-08-24 09:12:00,
2013-08-24 05:17:00,52.7,48.0,30.26,NW,315,2.3,5.0,85,0.00,,,0.00,Rainwise IP-100,2013-08-24 09:17:00,
2013-08-24 05:22:00,52.7,48.0,30.27,WNW,292,2.1,3.0,84,0.00,,,0.00,Rainwise IP-100,2013-08-24 09:22:00,
2013-08-24 05:27:00,52.7,48.0,30.26,WNW,292,1.9,3.0,84,0.00,,,0.00,Rainwise IP-100,2013-08-24 09:27:00,
2013-08-24 05:32:00,52.7,48.0,30.21,NW,315,1.9,4.0,84,0.00,,,0.00,Rainwise IP-100,2013-08-24 09:32:00,
2013-08-24 05:37:00,52.8,48.0,30.25,NW,315,2.3,4.0,84,0.00,,,0.00,Rainwise IP-100,2013-08-24 09:37:00,
2013-08-24 05:42:00,52.7,48.0,30.24,NNW,337,2.6,3.0,84,0.00,,,0.00,Rainwise IP-100,2013-08-24 09:42:00,
2013-08-24 05:47:00,52.7,48.0,30.22,NNW,337,3.3,5.0,84,0.00,,,0.00,Rainwise IP-100,2013-08-24 09:47:00,
2013-08-24 05:52:00,52.8,47.0,30.26,NW,315,2.6,4.0,83,0.00,,,0.00,Rainwise IP-100,2013-08-24 09:52:00,
2013-08-24 05:57:00,53.0,47.0,30.23,NNW,337,1.2,4.0,83,0.00,,,0.00,Rainwise IP-100,2013-08-24 09:57:00,
2013-08-24 06:02:00,53.0,47.0,30.25,NW,315,2.3,5.0,83,0.00,,,0.00,Rainwise IP-100,2013-08-24 10:02:00,
2013-08-24 06:07:00,53.1,48.0,30.27,NNW,337,1.2,5.0,84,0.00,,,0.00,Rainwise IP-100,2013-08-24 10:07:00,
2013-08-24 06:12:00,53.3,48.0,30.26,NW,315,2.6,6.0,85,0.00,,,0.00,Rainwise IP-100,2013-08-24 10:12:00,
2013-08-24 06:17:00,53.6,48.0,30.28,North,0,1.6,4.0,84,0.00,,,0.00,Rainwise IP-100,2013-08-24 10:17:00,
2013-08-24 06:22:00,54.1,49.0,30.28,NNW,337,3.3,4.0,84,0.00,,,0.00,Rainwise IP-100,2013-08-24 10:22:00,
2013-08-24 06:27:00,54.5,50.0,30.26,NNW,337,2.6,3.0,83,0.00,,,0.00,Rainwise IP-100,2013-08-24 10:27:00,
2013-08-24 06:32:00,55.0,50.0,30.27,NNW,337,4.2,4.2,82,0.00,,,0.00,Rainwise IP-100,2013-08-24 10:32:00,
2013-08-24 06:37:00,55.5,50.0,30.26,NNW,337,5.1,5.1,81,0.00,,,0.00,Rainwise IP-100,2013-08-24 10:37:00,
2013-08-24 06:42:00,55.7,50.0,30.27,NNW,337,4.2,7.0,80,0.00,,,0.00,Rainwise IP-100,2013-08-24 10:42:00,
2013-08-24 06:47:00,55.8,50.0,30.29,NNW,337,4.2,7.0,80,0.00,,,0.00,Rainwise IP-100,2013-08-24 10:47:00,
2013-08-24 06:52:00,55.9,50.0,30.27,NW,315,3.3,6.0,81,0.00,,,0.00,Rainwise IP-100,2013-08-24 10:52:00,
2013-08-24 06:57:00,56.2,50.0,30.28,NNW,337,4.0,5.0,80,0.00,,,0.00,Rainwise IP-100,2013-08-24 10:57:00,
2013-08-24 07:02:00,56.4,50.0,30.29,NNW,337,3.5,6.0,80,0.00,,,0.00,Rainwise IP-100,2013-08-24 11:02:00,
2013-08-24 07:07:00,56.6,50.0,30.27,NNW,337,4.7,5.0,79,0.00,,,0.00,Rainwise IP-100,2013-08-24 11:07:00,
2013-08-24 07:12:00,56.7,50.0,30.29,NNW,337,5.1,6.0,79,0.00,,,0.00,Rainwise IP-100,2013-08-24 11:12:00,
2013-08-24 07:17:00,57.0,50.0,30.30,NNW,337,3.5,6.0,78,0.00,,,0.00,Rainwise IP-100,2013-08-24 11:17:00,
2013-08-24 07:22:00,57.3,50.0,30.28,NNW,337,3.7,7.0,77,0.00,,,0.00,Rainwise IP-100,2013-08-24 11:22:00,
2013-08-24 07:27:00,57.5,50.0,30.29,NNW,337,4.2,6.0,76,0.00,,,0.00,Rainwise IP-100,2013-08-24 11:27:00,
2013-08-24 07:32:00,57.7,50.0,30.29,NW,315,3.5,6.0,75,0.00,,,0.00,Rainwise IP-100,2013-08-24 11:32:00,
2013-08-24 07:37:00,57.8,50.0,30.31,NNW,337,3.7,6.0,75,0.00,,,0.00,Rainwise IP-100,2013-08-24 11:37:00,
2013-08-24 07:42:00,58.0,50.0,30.27,NW,315,4.0,6.0,74,0.00,,,0.00,Rainwise IP-100,2013-08-24 11:42:00,
2013-08-24 07:47:00,58.1,50.0,30.31,NNW,337,5.1,6.0,74,0.00,,,0.00,Rainwise IP-100,2013-08-24 11:47:00,
2013-08-24 07:52:00,58.4,50.0,30.32,NW,315,4.4,6.0,74,0.00,,,0.00,Rainwise IP-100,2013-08-24 11:52:00,
2013-08-24 07:57:00,58.7,50.0,30.29,NNW,337,4.9,7.0,73,0.00,,,0.00,Rainwise IP-100,2013-08-24 11:57:00,
2013-08-24 08:02:00,58.8,50.0,30.29,NNW,337,3.7,7.0,73,0.00,,,0.00,Rainwise IP-100,2013-08-24 12:02:00,
2013-08-24 08:07:00,59.0,50.0,30.29,NNW,337,5.1,6.0,73,0.00,,,0.00,Rainwise IP-100,2013-08-24 12:07:00,
2013-08-24 08:12:00,59.1,50.0,30.30,NW,315,5.6,7.0,72,0.00,,,0.00,Rainwise IP-100,2013-08-24 12:12:00,
2013-08-24 08:17:00,59.4,50.0,30.30,NNW,337,6.8,9.0,71,0.00,,,0.00,Rainwise IP-100,2013-08-24 12:17:00,
2013-08-24 08:22:00,59.6,50.0,30.31,NNW,337,3.5,10.0,70,0.00,,,0.00,Rainwise IP-100,2013-08-24 12:22:00,
2013-08-24 08:27:00,59.6,50.0,30.31,North,0,5.8,9.0,70,0.00,,,0.00,Rainwise IP-100,2013-08-24 12:27:00,
2013-08-24 08:32:00,59.7,49.0,30.29,NNW,337,6.1,8.0,69,0.00,,,0.00,Rainwise IP-100,2013-08-24 12:32:00,
2013-08-24 08:37:00,59.7,49.0,30.31,NNW,337,6.5,10.0,68,0.00,,,0.00,Rainwise IP-100,2013-08-24 12:37:00,
2013-08-24 08:42:00,59.8,49.0,30.32,NNW,337,6.1,11.0,68,0.00,,,0.00,Rainwise IP-100,2013-08-24 12:42:00,
2013-08-24 08:47:00,59.9,49.0,30.33,NNW,337,8.4,12.0,67,0.00,,,0.00,Rainwise IP-100,2013-08-24 12:47:00,
2013-08-24 08:52:00,60.0,49.0,30.31,NNW,337,6.5,12.0,67,0.00,,,0.00,Rainwise IP-100,2013-08-24 12:52:00,
2013-08-24 08:57:00,60.1,48.0,30.31,NNW,337,5.8,10.0,66,0.00,,,0.00,Rainwise IP-100,2013-08-24 12:57:00,
2013-08-24 09:02:00,60.7,49.0,30.31,North,0,5.6,9.0,66,0.00,,,0.00,Rainwise IP-100,2013-08-24 13:02:00,
2013-08-24 09:07:00,61.4,50.0,30.32,NNW,337,4.7,8.0,65,0.00,,,0.00,Rainwise IP-100,2013-08-24 13:07:00,
2013-08-24 09:12:00,62.1,50.0,30.30,NNW,337,5.1,8.0,65,0.00,,,0.00,Rainwise IP-100,2013-08-24 13:12:00,
2013-08-24 09:17:00,62.8,50.0,30.34,NNW,337,4.2,8.0,64,0.00,,,0.00,Rainwise IP-100,2013-08-24 13:17:00,
2013-08-24 09:22:00,63.0,50.0,30.33,NNW,337,4.2,7.0,63,0.00,,,0.00,Rainwise IP-100,2013-08-24 13:22:00,
2013-08-24 09:27:00,62.8,50.0,30.33,WNW,292,5.6,6.0,64,0.00,,,0.00,Rainwise IP-100,2013-08-24 13:27:00,
2013-08-24 09:32:00,62.6,50.0,30.34,NNW,337,7.5,7.5,65,0.00,,,0.00,Rainwise IP-100,2013-08-24 13:32:00,
2013-08-24 09:37:00,62.3,50.0,30.32,NNW,337,4.7,7.0,65,0.00,,,0.00,Rainwise IP-100,2013-08-24 13:37:00,
2013-08-24 09:42:00,62.3,50.0,30.32,NNW,337,4.7,7.0,65,0.00,,,0.00,Rainwise IP-100,2013-08-24 13:42:00,
2013-08-24 09:47:00,62.8,50.0,30.34,NNW,337,3.3,5.0,65,0.00,,,0.00,Rainwise IP-100,2013-08-24 13:47:00,
2013-08-24 09:52:00,63.2,50.0,30.32,NNW,337,5.1,7.0,64,0.00,,,0.00,Rainwise IP-100,2013-08-24 13:52:00,
2013-08-24 09:57:00,63.6,50.0,30.33,NW,315,2.6,7.0,63,0.00,,,0.00,Rainwise IP-100,2013-08-24 13:57:00,
2013-08-24 10:02:00,63.9,51.0,30.31,NNE,22,3.5,8.0,63,0.00,,,0.00,Rainwise IP-100,2013-08-24 14:02:00,
2013-08-24 10:07:00,64.4,51.0,30.30,NNE,22,3.5,6.0,63,0.00,,,0.00,Rainwise IP-100,2013-08-24 14:07:00,
2013-08-24 10:12:00,65.1,51.0,30.32,NNW,337,5.1,6.0,62,0.00,,,0.00,Rainwise IP-100,2013-08-24 14:12:00,
2013-08-24 10:17:00,65.8,51.0,30.33,NNE,22,5.8,5.8,61,0.00,,,0.00,Rainwise IP-100,2013-08-24 14:17:00,
2013-08-24 10:22:00,66.4,51.0,30.33,NNW,337,6.8,7.0,59,0.00,,,0.00,Rainwise IP-100,2013-08-24 14:22:00,
2013-08-24 10:27:00,66.5,51.0,30.32,North,0,2.6,6.0,58,0.00,,,0.00,Rainwise IP-100,2013-08-24 14:27:00,
2013-08-24 10:32:00,66.7,51.0,30.31,NNW,337,4.4,8.0,58,0.00,,,0.00,Rainwise IP-100,2013-08-24 14:32:00,
2013-08-24 10:37:00,66.5,51.0,30.33,NNW,337,1.9,7.0,58,0.00,,,0.00,Rainwise IP-100,2013-08-24 14:37:00,
2013-08-24 10:42:00,66.6,52.0,30.32,NW,315,2.6,6.0,59,0.00,,,0.00,Rainwise IP-100,2013-08-24 14:42:00,
2013-08-24 10:47:00,67.5,52.0,30.29,NW,315,2.8,5.0,58,0.00,,,0.00,Rainwise IP-100,2013-08-24 14:47:00,
2013-08-24 10:52:00,67.8,51.0,30.34,NNW,337,4.0,7.0,56,0.00,,,0.00,Rainwise IP-100,2013-08-24 14:52:00,
2013-08-24 10:57:00,67.6,51.0,30.31,NNW,337,5.6,7.0,56,0.00,,,0.00,Rainwise IP-100,2013-08-24 14:57:00,
2013-08-24 11:02:00,67.7,52.0,30.31,NNE,22,4.7,7.0,57,0.00,,,0.00,Rainwise IP-100,2013-08-24 15:02:00,
2013-08-24 11:07:00,67.8,52.0,30.33,NNW,337,4.0,8.0,57,0.00,,,0.00,Rainwise IP-100,2013-08-24 15:07:00,
2013-08-24 11:12:00,67.9,51.0,30.34,NW,315,0.0,8.0,55,0.00,,,0.00,Rainwise IP-100,2013-08-24 15:12:00,
2013-08-24 11:17:00,68.0,50.0,30.30,NNW,337,4.0,9.0,53,0.00,,,0.00,Rainwise IP-100,2013-08-24 15:17:00,
2013-08-24 11:22:00,68.3,50.0,30.30,NNW,337,6.8,6.8,52,0.00,,,0.00,Rainwise IP-100,2013-08-24 15:22:00,
2013-08-24 11:27:00,68.6,48.0,30.32,NW,315,5.6,7.0,49,0.00,,,0.00,Rainwise IP-100,2013-08-24 15:27:00,
2013-08-24 11:32:00,68.8,48.0,30.28,NW,315,4.7,6.0,48,0.00,,,0.00,Rainwise IP-100,2013-08-24 15:32:00,
2013-08-24 11:37:00,68.9,47.0,30.31,NNW,337,5.1,7.0,47,0.00,,,0.00,Rainwise IP-100,2013-08-24 15:37:00,
2013-08-24 11:42:00,68.9,47.0,30.31,WNW,292,4.4,7.0,47,0.00,,,0.00,Rainwise IP-100,2013-08-24 15:42:00,
2013-08-24 11:47:00,68.8,48.0,30.31,NNW,337,4.4,9.0,48,0.00,,,0.00,Rainwise IP-100,2013-08-24 15:47:00,
2013-08-24 11:52:00,68.9,47.0,30.28,NNW,337,4.9,7.0,47,0.00,,,0.00,Rainwise IP-100,2013-08-24 15:52:00,
2013-08-24 11:57:00,69.0,48.0,30.30,NNW,337,6.3,6.3,48,0.00,,,0.00,Rainwise IP-100,2013-08-24 15:57:00,
2013-08-24 12:02:00,69.1,49.0,30.30,NNW,337,4.9,7.0,49,0.00,,,0.00,Rainwise IP-100,2013-08-24 16:02:00,
2013-08-24 12:07:00,69.1,50.0,30.30,NE,45,4.4,9.0,50,0.00,,,0.00,Rainwise IP-100,2013-08-24 16:07:00,
2013-08-24 12:12:00,69.4,49.0,30.29,NNW,337,6.8,9.0,49,0.00,,,0.00,Rainwise IP-100,2013-08-24 16:12:00,
2013-08-24 12:17:00,69.4,48.0,30.29,NNW,337,6.3,7.0,47,0.00,,,0.00,Rainwise IP-100,2013-08-24 16:17:00,
2013-08-24 12:22:00,69.7,48.0,30.29,North,0,7.5,8.0,46,0.00,,,0.00,Rainwise IP-100,2013-08-24 16:22:00,
2013-08-24 12:27:00,69.9,47.0,30.30,NNW,337,3.5,9.0,45,0.00,,,0.00,Rainwise IP-100,2013-08-24 16:27:00,
2013-08-24 12:32:00,69.9,48.0,30.30,North,0,3.3,8.0,46,0.00,,,0.00,Rainwise IP-100,2013-08-24 16:32:00,
2013-08-24 12:37:00,70.3,49.0,30.31,NNW,337,3.0,6.0,47,0.00,,,0.00,Rainwise IP-100,2013-08-24 16:37:00,
2013-08-24 12:42:00,70.7,49.0,30.31,NNW,337,4.7,7.0,47,0.00,,,0.00,Rainwise IP-100,2013-08-24 16:42:00,
2013-08-24 12:47:00,71.0,49.0,30.31,NNE,22,2.6,8.0,46,0.00,,,0.00,Rainwise IP-100,2013-08-24 16:47:00,
2013-08-24 12:52:00,71.3,49.0,30.28,North,0,3.0,8.0,45,0.00,,,0.00,Rainwise IP-100,2013-08-24 16:52:00,
2013-08-24 12:57:00,71.7,47.0,30.30,North,0,7.5,8.0,42,0.00,,,0.00,Rainwise IP-100,2013-08-24 16:57:00,
2013-08-24 13:02:00,72.2,48.0,30.30,NNW,337,2.6,8.0,42,0.00,,,0.00,Rainwise IP-100,2013-08-24 17:02:00,
2013-08-24 13:07:00,72.4,47.0,30.31,NNE,22,8.9,11.0,41,0.00,,,0.00,Rainwise IP-100,2013-08-24 17:07:00,
2013-08-24 13:12:00,72.3,47.0,30.29,NNW,337,3.0,9.0,40,0.00,,,0.00,Rainwise IP-100,2013-08-24 17:12:00,
2013-08-24 13:17:00,72.3,47.0,30.27,NW,315,2.8,7.0,40,0.00,,,0.00,Rainwise IP-100,2013-08-24 17:17:00,
2013-08-24 13:22:00,72.1,47.0,30.31,NNW,337,2.6,8.0,41,0.00,,,0.00,Rainwise IP-100,2013-08-24 17:22:00,
2013-08-24 13:27:00,71.9,47.0,30.28,North,0,4.4,8.0,41,0.00,,,0.00,Rainwise IP-100,2013-08-24 17:27:00,
2013-08-24 13:32:00,72.0,47.0,30.28,NNW,337,3.3,8.0,42,0.00,,,0.00,Rainwise IP-100,2013-08-24 17:32:00,
2013-08-24 13:37:00,72.2,48.0,30.30,NNW,337,5.6,6.0,42,0.00,,,0.00,Rainwise IP-100,2013-08-24 17:37:00,
2013-08-24 13:42:00,72.3,47.0,30.28,North,0,4.9,6.0,41,0.00,,,0.00,Rainwise IP-100,2013-08-24 17:42:00,
2013-08-24 13:47:00,72.0,47.0,30.30,NNW,337,4.4,8.0,41,0.00,,,0.00,Rainwise IP-100,2013-08-24 17:47:00,
2013-08-24 13:52:00,71.7,47.0,30.29,NNW,337,3.7,7.0,42,0.00,,,0.00,Rainwise IP-100,2013-08-24 17:52:00,
2013-08-24 13:57:00,71.6,48.0,30.31,NW,315,5.6,8.0,43,0.00,,,0.00,Rainwise IP-100,2013-08-24 17:57:00,
2013-08-24 14:02:00,71.9,47.0,30.28,WNW,292,4.2,6.0,42,0.00,,,0.00,Rainwise IP-100,2013-08-24 18:02:00,
2013-08-24 14:07:00,72.5,47.0,30.29,NNE,22,1.9,6.0,41,0.00,,,0.00,Rainwise IP-100,2013-08-24 18:07:00,
2013-08-24 14:12:00,72.7,47.0,30.29,NNW,337,5.1,7.0,41,0.00,,,0.00,Rainwise IP-100,2013-08-24 18:12:00,
2013-08-24 14:17:00,72.5,47.0,30.29,NNW,337,3.7,7.0,41,0.00,,,0.00,Rainwise IP-100,2013-08-24 18:17:00,
2013-08-24 14:22:00,72.4,47.0,30.27,NNW,337,4.2,6.0,41,0.00,,,0.00,Rainwise IP-100,2013-08-24 18:22:00,
2013-08-24 14:27:00,72.6,48.0,30.28,North,0,5.8,6.0,42,0.00,,,0.00,Rainwise IP-100,2013-08-24 18:27:00,
2013-08-24 14:32:00,72.7,47.0,30.29,NNE,22,4.0,8.0,40,0.00,,,0.00,Rainwise IP-100,2013-08-24 18:32:00,
2013-08-24 14:37:00,72.8,47.0,30.29,NNW,337,3.5,7.0,40,0.00,,,0.00,Rainwise IP-100,2013-08-24 18:37:00,
2013-08-24 14:42:00,73.5,47.0,30.28,NNW,337,7.9,7.9,39,0.00,,,0.00,Rainwise IP-100,2013-08-24 18:42:00,
2013-08-24 14:47:00,73.5,47.0,30.28,NNW,337,3.5,8.0,39,0.00,,,0.00,Rainwise IP-100,2013-08-24 18:47:00,
2013-08-24 14:52:00,73.4,47.0,30.27,NNW,337,4.0,7.0,39,0.00,,,0.00,Rainwise IP-100,2013-08-24 18:52:00,
2013-08-24 14:57:00,73.8,47.0,30.28,NNW,337,4.7,6.0,38,0.00,,,0.00,Rainwise IP-100,2013-08-24 18:57:00,
2013-08-24 15:02:00,74.1,47.0,30.30,NNW,337,1.6,5.0,38,0.00,,,0.00,Rainwise IP-100,2013-08-24 19:02:00,
2013-08-24 15:07:00,74.5,47.0,30.29,NW,315,5.1,6.0,38,0.00,,,0.00,Rainwise IP-100,2013-08-24 19:07:00,
2013-08-24 15:12:00,74.6,47.0,30.27,NNW,337,4.0,6.0,37,0.00,,,0.00,Rainwise IP-100,2013-08-24 19:12:00,
2013-08-24 15:17:00,74.3,47.0,30.27,North,0,3.3,6.0,37,0.00,,,0.00,Rainwise IP-100,2013-08-24 19:17:00,
2013-08-24 15:22:00,73.8,47.0,30.26,NNW,337,4.7,7.0,39,0.00,,,0.00,Rainwise IP-100,2013-08-24 19:22:00,
2013-08-24 15:27:00,73.4,47.0,30.28,NNW,337,3.0,7.0,39,0.00,,,0.00,Rainwise IP-100,2013-08-24 19:27:00,
2013-08-24 15:32:00,73.1,46.0,30.27,NNW,337,3.3,6.0,38,0.00,,,0.00,Rainwise IP-100,2013-08-24 19:32:00,
2013-08-24 15:37:00,73.5,47.0,30.29,NNE,22,4.0,4.0,39,0.00,,,0.00,Rainwise IP-100,2013-08-24 19:37:00,
2013-08-24 15:42:00,74.1,47.0,30.30,NNW,337,3.0,6.0,39,0.00,,,0.00,Rainwise IP-100,2013-08-24 19:42:00,
2013-08-24 15:47:00,74.1,46.0,30.26,NNW,337,4.0,7.0,37,0.00,,,0.00,Rainwise IP-100,2013-08-24 19:47:00,
2013-08-24 15:52:00,74.0,46.0,30.27,NW,315,5.8,7.0,37,0.00,,,0.00,Rainwise IP-100,2013-08-24 19:52:00,
2013-08-24 15:57:00,73.9,47.0,30.25,NNW,337,5.6,7.0,38,0.00,,,0.00,Rainwise IP-100,2013-08-24 19:57:00,
2013-08-24 16:02:00,73.6,47.0,30.27,NNE,22,2.6,7.0,39,0.00,,,0.00,Rainwise IP-100,2013-08-24 20:02:00,
2013-08-24 16:07:00,73.6,48.0,30.26,NNW,337,5.1,5.1,41,0.00,,,0.00,Rainwise IP-100,2013-08-24 20:07:00,
2013-08-24 16:12:00,73.8,49.0,30.27,NW,315,3.5,6.0,42,0.00,,,0.00,Rainwise IP-100,2013-08-24 20:12:00,
2013-08-24 16:17:00,74.3,48.0,30.27,NNW,337,5.4,7.0,40,0.00,,,0.00,Rainwise IP-100,2013-08-24 20:17:00,
2013-08-24 16:22:00,74.8,46.0,30.26,NNW,337,4.4,7.0,36,0.00,,,0.00,Rainwise IP-100,2013-08-24 20:22:00,
2013-08-24 16:27:00,74.6,46.0,30.29,NNE,22,1.4,7.0,36,0.00,,,0.00,Rainwise IP-100,2013-08-24 20:27:00,
2013-08-24 16:32:00,74.2,48.0,30.28,NNW,337,2.1,7.0,39,0.00,,,0.00,Rainwise IP-100,2013-08-24 20:32:00,
2013-08-24 16:37:00,74.2,49.0,30.29,WNW,292,1.6,5.0,41,0.00,,,0.00,Rainwise IP-100,2013-08-24 20:37:00,
2013-08-24 16:42:00,74.1,50.0,30.26,NNW,337,3.5,5.0,42,0.00,,,0.00,Rainwise IP-100,2013-08-24 20:42:00,
2013-08-24 16:47:00,74.0,50.0,30.29,NNW,337,2.8,4.0,43,0.00,,,0.00,Rainwise IP-100,2013-08-24 20:47:00,
2013-08-24 16:52:00,73.9,50.0,30.28,NNW,337,4.2,6.0,42,0.00,,,0.00,Rainwise IP-100,2013-08-24 20:52:00,
2013-08-24 16:57:00,73.5,50.0,30.29,NNE,22,1.9,5.0,43,0.00,,,0.00,Rainwise IP-100,2013-08-24 20:57:00,
2013-08-24 17:02:00,73.3,50.0,30.27,NNW,337,3.0,6.0,44,0.00,,,0.00,Rainwise IP-100,2013-08-24 21:02:00,
2013-08-24 17:07:00,73.4,50.0,30.26,NNE,22,4.0,6.0,43,0.00,,,0.00,Rainwise IP-100,2013-08-24 21:07:00,
2013-08-24 17:12:00,72.8,49.0,30.28,NNW,337,0.0,6.0,43,0.00,,,0.00,Rainwise IP-100,2013-08-24 21:12:00,
2013-08-24 17:17:00,72.9,49.0,30.29,NNW,337,5.4,5.4,43,0.00,,,0.00,Rainwise IP-100,2013-08-24 21:17:00,
2013-08-24 17:22:00,73.2,49.0,30.26,NNW,337,3.7,6.0,42,0.00,,,0.00,Rainwise IP-100,2013-08-24 21:22:00,
2013-08-24 17:27:00,73.1,48.0,30.26,NNW,337,2.6,5.0,42,0.00,,,0.00,Rainwise IP-100,2013-08-24 21:27:00,
2013-08-24 17:32:00,73.3,50.0,30.29,NNW,337,2.6,5.0,43,0.00,,,0.00,Rainwise IP-100,2013-08-24 21:32:00,
2013-08-24 17:37:00,73.4,50.0,30.26,NNW,337,2.3,4.0,43,0.00,,,0.00,Rainwise IP-100,2013-08-24 21:37:00,
2013-08-24 17:42:00,73.6,50.0,30.28,NNW,337,2.1,3.0,43,0.00,,,0.00,Rainwise IP-100,2013-08-24 21:42:00,
2013-08-24 17:47:00,74.0,49.0,30.25,NNW,337,1.9,4.0,41,0.00,,,0.00,Rainwise IP-100,2013-08-24 21:47:00,
2013-08-24 17:52:00,74.3,48.0,30.28,NNW,337,3.7,4.0,40,0.00,,,0.00,Rainwise IP-100,2013-08-24 21:52:00,
2013-08-24 17:57:00,74.5,48.0,30.29,NNW,337,1.9,3.0,39,0.00,,,0.00,Rainwise IP-100,2013-08-24 21:57:00,
2013-08-24 18:02:00,74.8,47.0,30.27,NW,315,1.6,3.0,38,0.00,,,0.00,Rainwise IP-100,2013-08-24 22:02:00,
2013-08-24 18:07:00,75.0,47.0,30.28,WNW,292,0.0,2.0,37,0.00,,,0.00,Rainwise IP-100,2013-08-24 22:07:00,
2013-08-24 18:12:00,75.1,47.0,30.28,NW,315,1.2,3.0,38,0.00,,,0.00,Rainwise IP-100,2013-08-24 22:12:00,
2013-08-24 18:17:00,75.2,48.0,30.28,WNW,292,1.9,2.0,39,0.00,,,0.00,Rainwise IP-100,2013-08-24 22:17:00,
2013-08-24 18:22:00,74.9,48.0,30.28,NNW,337,0.0,3.0,39,0.00,,,0.00,Rainwise IP-100,2013-08-24 22:22:00,
2013-08-24 18:27:00,74.6,47.0,30.30,WNW,292,1.2,3.0,38,0.00,,,0.00,Rainwise IP-100,2013-08-24 22:27:00,
2013-08-24 18:32:00,74.3,47.0,30.27,NW,315,0.0,3.0,38,0.00,,,0.00,Rainwise IP-100,2013-08-24 22:32:00,
2013-08-24 18:37:00,74.0,47.0,30.28,NW,315,0.0,2.0,39,0.00,,,0.00,Rainwise IP-100,2013-08-24 22:37:00,
2013-08-24 18:42:00,73.5,48.0,30.29,NNW,337,3.0,3.0,40,0.00,,,0.00,Rainwise IP-100,2013-08-24 22:42:00,
2013-08-24 18:47:00,72.7,48.0,30.29,NNW,337,0.0,3.0,42,0.00,,,0.00,Rainwise IP-100,2013-08-24 22:47:00,
2013-08-24 18:52:00,72.0,48.0,30.29,NNW,337,0.0,2.0,43,0.00,,,0.00,Rainwise IP-100,2013-08-24 22:52:00,
2013-08-24 18:57:00,71.3,48.0,30.27,NW,315,1.2,2.0,44,0.00,,,0.00,Rainwise IP-100,2013-08-24 22:57:00,
2013-08-24 19:02:00,70.7,47.0,30.29,NW,315,0.0,1.0,44,0.00,,,0.00,Rainwise IP-100,2013-08-24 23:02:00,
2013-08-24 19:07:00,70.3,47.0,30.27,NW,315,0.0,1.0,45,0.00,,,0.00,Rainwise IP-100,2013-08-24 23:07:00,
2013-08-24 19:12:00,69.8,48.0,30.29,NW,315,1.2,1.2,46,0.00,,,0.00,Rainwise IP-100,2013-08-24 23:12:00,
2013-08-24 19:17:00,69.4,48.0,30.28,NW,315,0.0,1.0,47,0.00,,,0.00,Rainwise IP-100,2013-08-24 23:17:00,
2013-08-24 19:22:00,69.0,47.0,30.32,WNW,292,1.2,1.2,47,0.00,,,0.00,Rainwise IP-100,2013-08-24 23:22:00,
2013-08-24 19:27:00,68.8,48.0,30.29,WNW,292,0.0,1.0,48,0.00,,,0.00,Rainwise IP-100,2013-08-24 23:27:00,
2013-08-24 19:32:00,68.4,48.0,30.26,WNW,292,1.4,1.4,49,0.00,,,0.00,Rainwise IP-100,2013-08-24 23:32:00,
2013-08-24 19:37:00,68.1,49.0,30.27,WNW,292,0.0,2.0,50,0.00,,,0.00,Rainwise IP-100,2013-08-24 23:37:00,
2013-08-24 19:42:00,67.8,48.0,30.30,WNW,292,0.0,1.0,50,0.00,,,0.00,Rainwise IP-100,2013-08-24 23:42:00,
2013-08-24 19:47:00,67.4,48.0,30.29,WNW,292,1.2,1.2,50,0.00,,,0.00,Rainwise IP-100,2013-08-24 23:47:00,
2013-08-24 19:52:00,67.1,48.0,30.29,WNW,292,0.0,1.0,50,0.00,,,0.00,Rainwise IP-100,2013-08-24 23:52:00,
2013-08-24 19:57:00,67.1,48.0,30.30,WNW,292,1.4,1.4,51,0.00,,,0.00,Rainwise IP-100,2013-08-24 23:57:00,
2013-08-24 20:02:00,67.0,50.0,30.31,WNW,292,0.0,1.0,53,0.00,,,0.00,Rainwise IP-100,2013-08-25 00:02:00,
2013-08-24 20:07:00,66.8,49.0,30.30,WNW,292,0.0,1.0,53,0.00,,,0.00,Rainwise IP-100,2013-08-25 00:07:00,
2013-08-24 20:12:00,66.6,49.0,30.30,WNW,292,0.0,1.0,53,0.00,,,0.00,Rainwise IP-100,2013-08-25 00:12:00,
2013-08-24 20:17:00,66.5,48.0,30.34,WNW,292,0.0,1.0,52,0.00,,,0.00,Rainwise IP-100,2013-08-25 00:17:00,
2013-08-24 20:22:00,66.4,48.0,30.32,WNW,292,0.0,1.0,52,0.00,,,0.00,Rainwise IP-100,2013-08-25 00:22:00,
2013-08-24 20:27:00,66.3,48.0,30.30,WNW,292,1.2,1.2,53,0.00,,,0.00,Rainwise IP-100,2013-08-25 00:27:00,
2013-08-24 20:32:00,66.2,49.0,30.31,WNW,292,0.0,1.0,54,0.00,,,0.00,Rainwise IP-100,2013-08-25 00:32:00,
2013-08-24 20:37:00,66.0,49.0,30.29,WNW,292,2.1,2.1,54,0.00,,,0.00,Rainwise IP-100,2013-08-25 00:37:00,
2013-08-24 20:42:00,66.0,49.0,30.32,WSW,247,1.2,2.0,54,0.00,,,0.00,Rainwise IP-100,2013-08-25 00:42:00,
2013-08-24 20:47:00,65.7,49.0,30.31,WSW,247,0.0,2.0,55,0.00,,,0.00,Rainwise IP-100,2013-08-25 00:47:00,
2013-08-24 20:52:00,65.0,49.0,30.33,WSW,247,0.0,0.0,57,0.00,,,0.00,Rainwise IP-100,2013-08-25 00:52:00,
2013-08-24 20:57:00,64.5,49.0,30.31,WSW,247,1.2,2.0,58,0.00,,,0.00,Rainwise IP-100,2013-08-25 00:57:00,
2013-08-24 21:02:00,64.3,49.0,30.32,WSW,247,0.0,2.0,58,0.00,,,0.00,Rainwise IP-100,2013-08-25 01:02:00,
2013-08-24 21:07:00,64.2,49.0,30.31,WSW,247,1.2,1.2,59,0.00,,,0.00,Rainwise IP-100,2013-08-25 01:07:00,
2013-08-24 21:12:00,64.0,49.0,30.33,West,270,3.3,3.3,59,0.00,,,0.00,Rainwise IP-100,2013-08-25 01:12:00,
2013-08-24 21:17:00,64.1,49.0,30.31,WSW,247,2.1,4.0,59,0.00,,,0.00,Rainwise IP-100,2013-08-25 01:17:00,
2013-08-24 21:22:00,64.4,49.0,30.28,WSW,247,1.2,3.0,58,0.00,,,0.00,Rainwise IP-100,2013-08-25 01:22:00,
2013-08-24 21:27:00,64.7,49.0,30.35,West,270,1.6,7.0,57,0.00,,,0.00,Rainwise IP-100,2013-08-25 01:27:00,
2013-08-24 21:32:00,64.8,49.0,30.33,WSW,247,3.0,5.0,57,0.00,,,0.00,Rainwise IP-100,2013-08-25 01:32:00,
2013-08-24 21:37:00,64.9,49.0,30.34,WSW,247,1.4,6.0,57,0.00,,,0.00,Rainwise IP-100,2013-08-25 01:37:00,
2013-08-24 21:42:00,65.0,49.0,30.32,WSW,247,0.0,6.0,56,0.00,,,0.00,Rainwise IP-100,2013-08-25 01:42:00,
2013-08-24 21:47:00,65.2,49.0,30.31,WSW,247,3.0,5.0,56,0.00,,,0.00,Rainwise IP-100,2013-08-25 01:47:00,
2013-08-24 21:52:00,65.3,48.0,30.32,WSW,247,2.3,4.0,55,0.00,,,0.00,Rainwise IP-100,2013-08-25 01:52:00,
2013-08-24 21:57:00,65.4,49.0,30.32,West,270,1.9,4.0,55,0.00,,,0.00,Rainwise IP-100,2013-08-25 01:57:00,
2013-08-24 22:02:00,65.5,48.0,30.33,West,270,2.3,4.0,54,0.00,,,0.00,Rainwise IP-100,2013-08-25 02:02:00,
2013-08-24 22:07:00,65.4,48.0,30.34,West,270,1.9,4.0,54,0.00,,,0.00,Rainwise IP-100,2013-08-25 02:07:00,
2013-08-24 22:12:00,65.1,48.0,30.32,WNW,292,2.6,2.6,55,0.00,,,0.00,Rainwise IP-100,2013-08-25 02:12:00,
2013-08-24 22:17:00,64.5,49.0,30.32,NW,315,1.6,3.0,57,0.00,,,0.00,Rainwise IP-100,2013-08-25 02:17:00,
2013-08-24 22:22:00,63.8,48.0,30.34,NW,315,0.0,2.0,58,0.00,,,0.00,Rainwise IP-100,2013-08-25 02:22:00,
2013-08-24 22:27:00,63.3,48.0,30.34,WNW,292,2.1,2.1,59,0.00,,,0.00,Rainwise IP-100,2013-08-25 02:27:00,
2013-08-24 22:32:00,63.1,48.0,30.33,West,270,1.9,3.0,59,0.00,,,0.00,Rainwise IP-100,2013-08-25 02:32:00,
2013-08-24 22:37:00,63.2,48.0,30.30,West,270,1.4,5.0,59,0.00,,,0.00,Rainwise IP-100,2013-08-25 02:37:00,
2013-08-24 22:42:00,63.6,49.0,30.32,WSW,247,4.0,4.0,59,0.00,,,0.00,Rainwise IP-100,2013-08-25 02:42:00,
2013-08-24 22:47:00,64.1,49.0,30.34,WSW,247,4.0,5.0,58,0.00,,,0.00,Rainwise IP-100,2013-08-25 02:47:00,
2013-08-24 22:52:00,64.4,49.0,30.33,West,270,1.2,4.0,57,0.00,,,0.00,Rainwise IP-100,2013-08-25 02:52:00,
2013-08-24 22:57:00,64.4,49.0,30.32,WNW,292,3.7,4.0,57,0.00,,,0.00,Rainwise IP-100,2013-08-25 02:57:00,
2013-08-24 23:02:00,64.1,49.0,30.31,NNW,337,0.0,3.0,58,0.00,,,0.00,Rainwise IP-100,2013-08-25 03:02:00,
2013-08-24 23:07:00,63.5,49.0,30.33,WSW,247,0.0,1.0,60,0.00,,,0.00,Rainwise IP-100,2013-08-25 03:07:00,
2013-08-24 23:12:00,63.0,50.0,30.35,WSW,247,0.0,0.0,62,0.00,,,0.00,Rainwise IP-100,2013-08-25 03:12:00,
2013-08-24 23:17:00,63.0,50.0,30.35,WSW,247,0.0,0.0,62,0.00,,,0.00,Rainwise IP-100,2013-08-25 03:17:00,
2013-08-24 23:22:00,62.1,51.0,30.31,WSW,247,0.0,0.0,68,0.00,,,0.00,Rainwise IP-100,2013-08-25 03:22:00,
2013-08-24 23:27:00,62.1,51.0,30.31,WSW,247,0.0,0.0,68,0.00,,,0.00,Rainwise IP-100,2013-08-25 03:27:00,
2013-08-24 23:34:00,61.1,53.0,30.34,SE,135,0.0,0.0,74,0.00,,,0.00,Rainwise IP-100,2013-08-25 03:34:00,
2013-08-24 23:39:00,60.8,53.0,30.32,SE,135,0.0,1.0,75,0.00,,,0.00,Rainwise IP-100,2013-08-25 03:39:00,
2013-08-24 23:44:00,60.4,53.0,30.32,SE,135,0.0,0.0,76,0.00,,,0.00,Rainwise IP-100,2013-08-25 03:44:00,
2013-08-24 23:49:00,60.2,53.0,30.33,SE,135,0.0,0.0,77,0.00,,,0.00,Rainwise IP-100,2013-08-25 03:49:00,
2013-08-24 23:54:00,59.9,53.0,30.33,SE,135,0.0,0.0,78,0.00,,,0.00,Rainwise IP-100,2013-08-25 03:54:00,
2013-08-24 23:59:00,59.5,53.0,30.35,SE,135,0.0,0.0,78,0.00,,,0.00,Rainwise IP-100,2013-08-25 03:59:00,